Location: Le Domaine
(47.0333°N, 76.5361°W)
Time: 15:33:36
(UTC-05:00)

S-56A Canister/Altair - Pass Details

Date: 28 November 2019
Orbit: 632 x 2500 km, 38.9° (Epoch: 14 December)

Event Time Altitude Azimuth Distance (km) Brightness Sun altitude
Rises 13:16:44 0° 221° (SW) 6,161 13.4 19.1°
Reaches altitude 10° 13:21:18 10° 215° (SW) 5,088 13.6 18.8°
Maximum altitude 13:33:52 38° 155° (SSE) 2,917 11.2 18.0°
Drops below altitude 10° 13:43:35 10° 92° (E) 3,956 11.0 17.3°
Sets 13:46:37 0° 85° (E) 4,697 11.2 17.1°
